EW2973 Weather Reports


Display with metric or nautical units.
time (UTC)temp
F
wind
direction
speed
MPH
gust
MPH
rain 1hr
in
rain 24hr
in
rain mn
in
humidity
%
barometer
mb
20260903123025 74 176 0.0 2.0 0.00 0.00 0.00 89 1018.7
20260903121510 73 169 0.0 0.0 0.00 0.00 0.00 90 1018.7
20260903120014 73 184 0.0 0.0 0.00 0.00 0.00 90 1018.5
20260903114520 73 180 0.0 0.0 0.00 0.00 0.00 90 1018.5
20260903113017 73 180 0.0 0.0 0.00 0.00 0.00 90 1018.4
20260903111519 73 180 0.0 0.0 0.00 0.00 0.00 90 1018.2
20260903110019 73 141 0.0 0.0 0.00 0.00 0.00 90 1018.0
20260903104517 73 141 0.0 0.0 0.00 0.00 0.00 90 1017.8
20260903103016 73 186 0.0 0.0 0.00 0.00 0.00 89 1017.8
20260903101518 73 186 0.0 0.0 0.00 0.00 0.00 89 1017.6
20260903100025 74 186 0.0 0.0 0.00 0.00 0.00 88 1017.6
20260903094519 74 178 0.0 0.0 0.00 0.00 0.00 88 1017.4
20260903093036 74 168 0.0 0.0 0.00 0.00 0.00 88 1017.4
20260903091520 74 175 0.0 1.0 0.00 0.00 0.00 88 1017.5
20260903090018 74 201 0.0 0.0 0.00 0.00 0.00 88 1017.5
20260903084519 74 183 0.0 0.0 0.00 0.00 0.00 87 1017.4
20260903083021 75 183 0.0 0.0 0.00 0.00 0.00 87 1017.4
20260903081533 75 171 0.0 0.0 0.00 0.00 0.00 86 1017.4
20260903080024 75 171 0.0 0.0 0.00 0.00 0.00 86 1017.4
20260903074520 75 175 0.0 0.0 0.00 0.00 0.00 85 1017.4
20260903073024 76 175 0.0 0.0 0.00 0.00 0.00 85 1017.4
20260903071519 76 175 0.0 0.0 0.00 0.00 0.00 85 1017.5
20260903070022 76 175 0.0 0.0 0.00 0.00 0.00 84 1017.6
20260903064511 76 175 0.0 0.0 0.00 0.00 0.00 84 1017.6
20260903063011 77 165 0.0 0.0 0.00 0.00 0.00 84 1017.6
20260903061523 77 172 0.0 0.0 0.00 0.00 0.00 83 1017.6
20260903060026 77 172 0.0 0.0 0.00 0.00 0.00 83 1017.6
20260903054535 77 155 0.0 0.0 0.00 0.00 0.00 83 1017.6
20260903053018 78 176 0.0 0.0 0.00 0.00 0.00 82 1017.5
20260903051514 78 176 0.0 0.0 0.00 0.00 0.00 81 1017.2
20260903050016 78 176 0.0 0.0 0.00 0.00 0.00 80 1017.1
20260903044526 79 171 0.0 0.0 0.00 0.00 0.00 79 1017.1
20260903043027 79 141 0.0 0.0 0.00 0.00 0.00 79 1017.0
20260903041527 79 167 0.0 1.0 0.00 0.00 0.00 78 1016.9
20260903040031 79 214 0.0 2.0 0.00 0.00 0.00 78 1016.8
20260903034527 79 160 0.0 0.0 0.00 0.00 0.00 78 1017.0
20260903033015 80 188 0.0 0.0 0.00 0.00 0.00 77 1017.0
20260903031512 79 148 0.0 0.0 0.00 0.00 0.00 77 1017.3
20260903030028 79 213 0.0 0.0 0.00 0.00 0.00 77 1017.5
20260903024527 80 213 0.0 0.0 0.00 0.00 0.00 77 1017.7
20260903023037 80 213 0.0 0.0 0.00 0.00 0.00 75 1017.5
20260903021527 80 213 0.0 0.0 0.00 0.00 0.00 75 1017.5
20260903020020 81 213 0.0 0.0 0.00 0.00 0.00 74 1017.5
20260903014520 81 213 0.0 0.0 0.00 0.00 0.00 72 1017.4
20260903013016 82 159 0.0 0.0 0.00 0.00 0.00 72 1017.4
20260903011526 83 159 0.0 0.0 0.00 0.00 0.00 70 1017.4
20260903010035 85 159 0.0 0.0 0.00 0.00 0.00 65 1017.2
20260903004539 85 196 0.0 2.0 0.00 0.00 0.00 63 1016.9
20260903003025 86 178 0.0 1.0 0.00 0.00 0.00 62 1016.8
20260903001528 87 215 0.0 3.0 0.00 0.00 0.00 60 1016.8
20260903000035 87 205 1.0 3.0 0.00 0.00 0.00 59 1016.8
20260902234511 88 205 2.0 7.0 0.00 0.00 0.00 58 1016.8
20260902233028 88 263 1.0 7.0 0.00 0.00 0.00 57 1016.8
20260902231526 89 209 2.0 7.0 0.00 0.00 0.00 56 1016.8
20260902230030 89 238 3.0 10.0 0.00 0.00 0.00 55 1016.8
20260902224528 89 215 4.0 7.0 0.00 0.00 0.00 54 1016.8
20260902223025 90 254 3.0 12.0 0.00 0.00 0.00 53 1016.8
20260902221520 90 185 4.0 10.0 0.00 0.00 0.00 52 1016.9
20260902220015 91 211 5.0 12.0 0.00 0.00 0.00 51 1016.9
20260902214520 92 250 3.0 10.0 0.00 0.00 0.00 51 1016.9
20260902213009 93 240 4.0 14.0 0.00 0.00 0.00 51 1017.1
20260902211531 93 263 5.0 13.0 0.00 0.00 0.00 51 1017.1
20260902210028 92 205 4.0 12.0 0.00 0.00 0.00 53 1017.2
20260902204528 92 226 5.0 10.0 0.00 0.00 0.00 52 1017.3
20260902203021 93 94 3.0 9.0 0.00 0.00 0.00 54 1017.4
20260902201526 93 263 5.0 11.0 0.00 0.00 0.00 52 1017.5
20260902200018 93 263 4.0 10.0 0.00 0.00 0.00 51 1017.6
20260902194512 93 210 1.0 9.0 0.00 0.00 0.00 52 1017.6
20260902193028 94 230 2.0 6.0 0.00 0.00 0.00 53 1017.8
20260902191533 94 228 4.0 9.0 0.00 0.00 0.00 51 1018.0
20260902190029 94 217 2.0 10.0 0.00 0.00 0.00 52 1018.0
20260902184524 94 261 3.0 11.0 0.00 0.00 0.00 53 1018.1
20260902183018 93 267 0.0 12.0 0.00 0.00 0.00 57 1018.3
20260902181516 92 226 3.0 6.0 0.00 0.00 0.00 54 1018.4
20260902180011 92 233 3.0 6.0 0.00 0.00 0.00 53 1018.7
20260902174543 93 263 2.0 12.0 0.00 0.00 0.00 53 1018.9
20260902173032 93 261 3.0 7.0 0.00 0.00 0.00 54 1019.1
20260902171529 92 271 0.0 7.0 0.00 0.00 0.00 59 1019.1
20260902170033 92 150 3.0 7.0 0.00 0.00 0.00 58 1019.2
20260902164529 90 263 1.0 6.0 0.00 0.00 0.00 60 1019.4
20260902163015 90 221 0.0 7.0 0.00 0.00 0.00 61 1019.5
20260902161522 89 150 0.0 7.0 0.00 0.00 0.00 68 1019.5
20260902160033 88 254 0.0 5.0 0.00 0.00 0.00 64 1019.8
20260902154529 87 165 2.0 5.0 0.00 0.00 0.00 66 1019.9
20260902153032 86 229 2.0 7.0 0.00 0.00 0.00 67 1019.8
20260902151525 85 138 1.0 6.0 0.00 0.00 0.00 70 1019.7
20260902150023 83 186 2.0 6.0 0.00 0.00 0.00 72 1019.8
20260902144520 82 217 1.0 3.0 0.00 0.00 0.00 75 1019.8
20260902143037 81 211 2.0 4.0 0.00 0.00 0.00 77 1019.7
20260902141535 80 221 0.0 5.0 0.00 0.00 0.00 77 1019.8
20260902140029 79 265 0.0 5.0 0.00 0.00 0.00 79 1019.6
20260902134532 79 240 1.0 5.0 0.00 0.00 0.00 78 1019.7
20260902133033 79 262 2.0 4.0 0.00 0.00 0.00 80 1019.6
20260902131525 78 196 1.0 4.0 0.00 0.00 0.00 81 1019.5
20260902130025 77 180 1.0 4.0 0.00 0.00 0.00 83 1019.5
20260902124514 76 198 0.0 5.0 0.00 0.00 0.00 85 1019.5